Flag for Germany Weather for the Past 2 Weeks in Neunkirchen (Saar), Saarland, Germany

Now
41 °F

Clear.


Feels Like: 37 °F
Forecast: 38 / 50 °F
Wind: 6 mph from Southwest

Location: Saarbruecken / Ensheim

Current Time: Feb 6, 2016 at 12:13:31 AM

Latest Report: Feb 5, 2016 at 11:20 PM


Visibility: 10 mi

Pressure: 30.15 "Hg

Humidity: 93%

Dew point: 39 °F

Location of Neunkirchen (Saar)Location

Historic Weather in Neunkirchen (Saar) — Graph

°F

Neunkirchen (Saar) Temperature Yesterday

Maximum temperature yesterday: 46 °F (at 12:20 PM)
Minimum temperature yesterday: 37 °F (at 4:20 AM)
Average temperature yesterday: 43 °F

High & Low Weather Summary for the Past Weeks

 TemperatureHumidityPressure
High57 °F (Jan 25, 2:50 PM)100% (Jan 22, 9:20 AM)30.60 "Hg (Jan 22, 9:20 AM)
Low19 °F (Jan 22, 5:20 AM)44% (Jan 25, 2:50 PM)29.86 "Hg (Jan 30, 3:50 PM)
Average42 °F88%30.25 "Hg
* Reported Jan 21 10:50 PM — Feb 5 10:50 PM, Neunkirchen (Saar), Weather by CustomWeather, © 2016

Note: Actual official high and low records may vary slightly from our data, if they occured in-between our weather recording intervals... More about our weather records

Advertising

Neunkirchen (Saar) Weather History for the Previous 24 Hours

 ConditionsComfort  
Time TempWeatherWind HumidityBarometerVisibility
10:50 PM
Fri, Feb 5
43 °FPassing clouds.6 mph87%30.15 "HgN/A
10:20 PM45 °FPassing clouds.7 mph87%30.18 "HgN/A
9:50 PM45 °FPassing clouds.8 mph87%30.18 "HgN/A
9:20 PM45 °FPassing clouds.7 mph87%30.18 "HgN/A
8:50 PM45 °FPassing clouds.9 mph87%30.21 "HgN/A
8:20 PM45 °FPassing clouds.9 mph87%30.21 "HgN/A
7:50 PM45 °FPassing clouds.9 mph87%30.21 "HgN/A
7:20 PM46 °FPassing clouds.7 mph82%30.21 "HgN/A
6:50 PM46 °FPassing clouds.7 mph82%30.24 "HgN/A
6:20 PM46 °FPassing clouds.7 mph87%30.24 "HgN/A
5:50 PM46 °FPassing clouds.9 mph87%30.24 "HgN/A
5:20 PM46 °FBroken clouds.10 mph87%30.24 "HgN/A
4:50 PM46 °FBroken clouds.9 mph87%30.24 "HgN/A
4:20 PM46 °FBroken clouds.9 mph87%30.24 "HgN/A
3:50 PM46 °FBroken clouds.12 mph87%30.27 "HgN/A
3:20 PM46 °FPartly sunny.9 mph93%30.27 "HgN/A
2:50 PM46 °FPartly sunny.10 mph93%30.27 "Hg5 mi
2:20 PM46 °FPartly sunny.12 mph93%30.27 "Hg4 mi
1:50 PM46 °FDrizzle. Partly sunny.9 mph93%30.30 "Hg4 mi
1:20 PM46 °FDrizzle. Partly sunny.10 mph93%30.30 "Hg4 mi
12:50 PM46 °FDrizzle. Partly sunny.8 mph93%30.30 "Hg4 mi
12:20 PM46 °FFog.10 mph93%30.33 "Hg2 mi
11:50 AM45 °FFog.7 mph100%30.33 "Hg1 mi
11:20 AM45 °FFog.6 mph93%30.33 "Hg1 mi
10:50 AM43 °FFog.7 mph100%30.33 "Hg1 mi
10:20 AM43 °FFog.9 mph100%30.33 "Hg1 mi
9:50 AM43 °FFog.7 mph93%30.33 "Hg1 mi
9:20 AM43 °FFog.9 mph93%30.33 "Hg1 mi
8:50 AM43 °FFog.8 mph93%30.33 "Hg2 mi
8:20 AM43 °FFog.8 mph93%30.33 "Hg3 mi
7:50 AM41 °FPassing clouds.6 mph100%30.33 "Hg4 mi
7:20 AM41 °FPassing clouds.5 mph93%30.33 "Hg5 mi
6:50 AM39 °FPartly cloudy.5 mph100%30.33 "HgN/A
6:20 AM39 °FPartly cloudy.2 mph93%30.33 "HgN/A
5:50 AM37 °FPartly cloudy.3 mph100%30.33 "HgN/A
5:20 AM37 °FPartly cloudy.3 mph100%30.33 "HgN/A
4:20 AM37 °FPassing clouds.6 mph93%30.33 "HgN/A
3:50 AM39 °FPassing clouds.6 mph93%30.33 "HgN/A
3:20 AM39 °FPassing clouds.2 mph93%30.33 "HgN/A
2:50 AM39 °FPassing clouds.8 mph93%30.33 "HgN/A
2:20 AM39 °FOvercast.8 mph93%30.33 "HgN/A
1:50 AM39 °FOvercast.6 mph93%30.33 "HgN/A
1:20 AM39 °FPassing clouds.6 mph93%30.33 "HgN/A
12:50 AM39 °FPartly cloudy.8 mph93%30.30 "HgN/A
12:20 AM39 °FPartly cloudy.7 mph100%30.30 "HgN/A
Weather by CustomWeather, © 2016

See weather overviewHow to use our weather pages